This is the latest recevied weather packets stored in our database for station/object KD5GAT-51. If no packets are shown the sender has not sent any weather packets the latest 10 day(s).
| Time | Temp. | Humidity | Pressure | Rain* | Wind** | Luminosity | Snow |
|---|---|---|---|---|---|---|---|
| 1778070338 | 23.89° C | 100% | 1010.8 hPa | - | - | - | - |
| 1778069438 | 23.33° C | 100% | 1010.7 hPa | - | - | - | - |
| 1778068538 | 23.33° C | 100% | 1010.6 hPa | - | - | - | - |
| 1778067638 | 23.33° C | 100% | 1010.5 hPa | - | - | - | - |
| 1778066737 | 22.78° C | 100% | 1010.6 hPa | - | - | - | - |
| 1778065837 | 22.78° C | 100% | 1010.5 hPa | - | - | - | - |
| 1778064936 | 23.33° C | 100% | 1010.4 hPa | - | - | - | - |
| 1778064036 | 23.33° C | 100% | 1010.3 hPa | - | - | - | - |
| 1778063136 | 23.89° C | 100% | 1010.3 hPa | - | - | - | - |
| 1778062236 | 23.89° C | 100% | 1010.3 hPa | - | - | - | - |
| 1778061343 | 23.89° C | 100% | 1010.2 hPa | - | - | - | - |
| 1778060443 | 23.89° C | 100% | 1010.3 hPa | - | - | - | - |
| 1778059543 | 23.89° C | 100% | 1010.2 hPa | - | - | - | - |
| 1778058643 | 24.44° C | 100% | 1010.2 hPa | - | - | - | - |
| 1778057743 | 24.44° C | 100% | 1010.3 hPa | - | - | - | - |
| 1778056842 | 24.44° C | 100% | 1010.4 hPa | - | - | - | - |
| 1778055942 | 24.44° C | 100% | 1010.6 hPa | - | - | - | - |
| 1778055042 | 24.44° C | 100% | 1010.5 hPa | - | - | - | - |
| 1778054142 | 24.44° C | 100% | 1010.4 hPa | - | - | - | - |
| 1778053242 | 24.44° C | 100% | 1010.5 hPa | - | - | - | - |
| 1778052342 | 24.44° C | 100% | 1010.6 hPa | - | - | - | - |
| 1778051442 | 24.44° C | 100% | 1010.8 hPa | - | - | - | - |
| 1778050541 | 24.44° C | 100% | 1010.7 hPa | - | - | - | - |
| 1778049641 | 24.44° C | 100% | 1011 hPa | - | - | - | - |
| 1778048741 | 24.44° C | 100% | 1010.8 hPa | - | - | - | - |
* Rain since midnight (hover to see other rain measurements)
** Current wind speed in m/s (hover to see current wind gust speed)